20140829,1
20140901,1
20140902,1
20140903,1
20140904,2
20140905,37
20140908,106
20140909,262
20140910,416
20140911,559
20140912,721
20140916,846
20140917,1034
20140918,1247
20140919,1440
20140922,1677
20140924,1971
20140925,2265
20140926,2387
20140929,2708
20140930,2997
20141001,3371
20141002,3414
20141003,3419
20141006,3439
20141007,3439
20141008,3420
20141009,3625
20141010,3672
20141014,3731
20141015,3811
20141016,3814
20141017,3819
20141020,4084
20141021,4190
20141022,4290
20141023,4421
20141024,4555
20141027,4557
20141028,4538
20141029,4837
20141030,4998
20141031,5229
20141104,5726
20141105,5729
20141106,5765
20141107,5816
20141110,5761
20141111,5929
20141112,6043
20141113,6048
20141114,6176
20141117,6326
20141118,6517
20141119,6678
20141120,6853
20141121,7159
20141125,7491
20141126,7785
20141127,8069
20141128,8432
20141201,8438
20141202,8559
20141203,8760
20141204,8931
20141205,9081
20141208,9440
20141209,9583
20141210,9736
20141211,9825
20141212,10170
20141215,10150
20141216,10221
20141217,10626
20141218,11013
20141219,11297
20141222,11564
20141224,11997
20141225,12143
20141226,12302
20141229,12300
20141230,12684
20150105,12957
20150106,12839
20150107,12744
20150108,12916
20150109,13210
20150113,13268
20150114,13246
20150115,12873
20150116,12928
20150119,13149
20150120,13499
20150121,13578
20150122,14027
20150123,14278
20150126,14445
20150127,14880
20150128,14816
20150129,15503
20150130,16009
20150202,16414
20150203,16472
20150204,16716
20150205,16638
20150206,16848
20150209,17054
20150210,17171
20150212,17546
20150213,17688
20150216,17800
20150217,17943
20150218,18132
20150219,18038
20150220,18602
20150223,18599
20150224,19118
20150225,19267
20150226,19749
20150227,20108
20150302,20496
20150303,20611
20150304,20721
20150305,20731
20150306,20840
20150309,21146
20150310,21151
20150311,21401
20150312,21584
20150313,21965
20150316,21757
20150317,22059
20150318,22180
20150319,22183
20150320,22564
20150323,22767
20150324,22968
20150325,23153
20150326,23194
20150327,23119
20150330,23619
20150331,24012
20150401,24311
20150402,24361
20150403,24365
20150406,24254
20150407,24397
20150408,24782
20150409,25052
20150410,25181
20150413,25410
20150414,25301
20150415,24682
20150416,24579
20150417,25065
20150420,25364
20150421,25744
20150422,26285
20150423,26690
20150424,26865
20150427,26795
20150428,27541
20150430,27781
20150501,28481
20150507,28521
20150508,28372
20150511,28797
20150512,28987
20150513,28999
20150514,29139
20150515,29380
20150518,29639
20150519,29853
20150520,30133
20150521,30449
20150522,30598
20150525,30938
20150526,31148
20150527,31327
20150528,32069
20150529,32448
20150601,33421
20150602,33881
20150603,33687
20150604,33860
20150605,34045
20150608,34377
20150609,34356
20150610,34572
20150611,34434
20150612,34685
20150615,34558
20150616,34747
20150617,35009
20150618,35171
20150619,35528
20150622,35730
20150623,36145
20150624,36421
20150625,36640
20150626,37241
20150629,37504
20150630,37758
20150701,38212
20150702,38656
20150703,38725
20150706,38661
20150707,38677
20150708,38654
20150709,38344
20150710,38896
20150713,39203
20150714,39535
20150715,38386
20150716,38839
20150717,38952
20150721,39096
20150722,39107
20150723,39326
20150724,39483
20150727,39458
20150728,39551
20150729,40195
20150730,40823
20150731,41175
20150803,41718
20150804,41852
20150805,42190
20150806,42512
20150807,42626
20150810,42766
20150811,42874
20150812,42772
20150813,42316
20150814,42256
20150817,42145
20150818,42619
20150819,42528
20150820,42761
20150821,42634
20150824,41897
20150825,40498
20150826,41112
20150827,41748
20150828,42369
20150831,42242
20150901,42685
20150902,42504
20150903,43020
20150904,42809
20150907,42184
20150908,42209
20150909,42675
20150910,42727
20150911,43186
20150914,43067
20150915,42881
20150916,42839
20150917,43165
20150918,43014
20150924,43244
20150925,43548
20150928,43725
20150929,43497
20150930,44223
20151001,45168
20151002,45285
20151005,45571
20151006,45837
20151007,45915
20151008,45969
20151009,46303
20151013,46206
20151014,46054
20151015,45468
20151016,45748
20151019,46202
20151020,46056
20151021,46463
20151022,46387
20151023,47022
20151026,47298
20151027,47658
20151028,48110
20151029,48533
20151030,48981
20151102,49815
20151104,49860
20151105,50207
20151106,50003
20151109,50685
20151110,50524
20151111,50715
20151112,50768
20151113,50510
20151116,50521
20151117,51444
20151118,51763
20151119,51899
20151120,51834
20151124,51877
20151125,52229
20151126,52622
20151127,52620
20151130,52075
20151201,54064
20151202,54103
20151203,54474
20151204,53932
20151207,54350
20151208,54479
20151209,54322
20151210,53879
20151211,54420
20151214,53869
20151215,53904
20151216,54590
20151217,55625
20151218,55933
20151221,55481
20151222,55719
20151224,55895
20151225,55916
20151228,55948
20151229,55954
20151230,56516
20160104,57346
20160105,56456
20160106,56484
20160107,56209
20160108,55626
20160112,56026
20160113,56131
20160114,55924
20160115,55624
20160118,54849
20160119,55187
20160120,55189
20160121,54996
20160122,55351
20160125,56109
20160126,55891
20160127,56083
20160128,55796
20160129,57427
20160201,58942
20160202,58671
20160203,58046
20160204,57368
20160205,57063
20160208,57112
20160209,56262
20160210,56001
20160212,54761
20160215,54775
20160216,55555
20160217,55200
20160218,55352
20160219,54787
20160222,54958
20160223,54647
20160224,54568
20160225,55056
20160226,55661
20160229,55681
20160301,56512
20160302,57531
20160303,57891
20160304,57938
20160307,58369
20160308,58054
20160309,57358
20160310,58140
20160311,58407
20160314,58946
20160315,58647
20160316,58253
20160317,58364
20160318,58211
20160322,59114
20160323,59388
20160324,59377
20160325,60440
20160328,60472
20160329,60494
20160330,61618
20160331,61713
20160401,62566
20160404,61876
20160405,61909
20160406,61510
20160407,60843
20160408,60128
20160411,60255
20160412,60283
20160413,60911
20160414,61437
20160415,61079
20160418,60017
20160419,60820
20160420,61338
20160421,61759
20160422,61729
20160425,62719
20160426,63093
20160427,63718
20160428,62908
20160502,61546
20160506,62279
20160509,61924
20160510,62762
20160511,63149
20160512,62819
20160513,62949
20160516,62607
20160517,62694
20160518,62788
20160519,63258
20160520,62905
20160523,63055
20160524,62803
20160525,63369
20160526,63650
20160527,64290
20160530,64918
20160531,65536
20160601,65560
20160602,64405
20160603,64435
20160606,63318
20160607,64242
20160608,64282
20160609,64345
20160610,64420
20160613,63685
20160614,63357
20160615,62951
20160616,62996
20160617,62292
20160620,62330
20160621,61556
20160622,61900
20160623,62332
20160624,60123
20160627,60608
20160628,60328
20160629,60915
20160630,61725
20160701,62455
20160704,62488
20160705,62124
20160706,61368
20160707,61352
20160708,61382
20160711,61389
20160712,62613
20160713,63788
20160714,63869
20160715,64254
20160719,64270
20160720,64273
20160721,65039
20160722,64237
20160725,64638
20160726,63385
20160727,63351
20160728,63265
20160729,62771
20160801,62378
20160802,62087
20160803,61623
20160804,61618
20160805,61641
20160808,62081
20160809,62087
20160810,61701
20160812,62500
20160815,61314
20160816,60915
20160817,60934
20160818,60130
20160819,60659
20160822,60599
20160823,60197
20160824,60510
20160825,60514
20160826,60532
20160829,61267
20160830,61199
20160831,61551
20160901,61915
20160902,62331
20160905,62752
20160906,62782
20160907,61615
20160908,61623
20160909,62035
20160912,62043
20160913,61227
20160914,61603
20160915,61618
20160916,61138
20160920,60722
20160921,60686
20160923,60766
20160926,60366
20160927,59925
20160928,60205
20160929,60882
20160930,59886
20161003,60341
20161004,61146
20161005,61260
20161006,62037
20161007,62019
20161011,62007
20161012,61619
20161013,62410
20161014,62013
20161017,61581
20161018,61325
20161019,61672
20161020,61681
20161021,61588
20161024,61181
20161025,61528
20161026,61375
20161027,61667
20161028,61969
20161031,61141
20161101,61225
20161102,60830
20161104,60433
20161107,60838
20161108,61214
20161109,60082
20161110,62137
20161111,62557
20161114,62112
20161115,61746
20161116,62697
20161117,62107
20161118,62817
20161121,63140
20161122,62831
20161124,63604
20161125,64263
20161128,63466
20161129,62441
20161130,62196
20161201,63676
20161202,63747
20161205,63705
20161206,63733
20161207,64101
20161208,64352
20161209,64564
20161212,64873
20161213,64817
20161214,64848
20161215,65882
20161216,65710
20161219,65337
20161220,64725
20161221,64650
20161222,64858
20161226,64226
20161227,63954
20161228,63932
20161229,63301
20161230,62922
20170104,63765
20170105,63415
20170106,62714
20170110,62706
20170111,62660
20170112,62282
20170113,62276
20170116,61491
20170117,61452
20170118,60744
20170119,61711
20170120,61680
20170123,60876
20170124,60480
20170125,60663
20170126,60060
20170127,60595
20170130,60628
20170131,60003
20170201,60324
20170202,60266
20170203,60242
20170206,59891
20170207,59529
20170208,59790
20170209,59531
20170210,60401
20170213,60685
20170214,60313
20170215,60328
20170216,60288
20170217,59945
20170220,59251
20170221,59468
20170222,59813
20170223,59788
20170224,58972
20170227,58382
20170228,58436
20170301,59083
20170302,59336
20170303,59343
20170306,59042
20170307,59256
20170308,59190
20170309,59415
20170310,59750
20170313,59669
20170314,59653
20170315,59972
20170316,59107
20170317,59208
20170321,58467
20170322,58120
20170323,58039
20170324,57658
20170327,57146
20170328,57392
20170329,57485
20170330,57800
20170331,57536
20170403,57501
20170404,56914
20170405,56890
20170406,57221
20170407,57384
20170410,58050
20170411,57359
20170412,56713
20170413,56363
20170414,56612
20170417,55584
20170418,56212
20170419,55472
20170420,55761
20170421,55984
20170424,55861
20170425,56057
20170426,56397
20170427,56422
20170428,55989
20170501,56246
20170502,56267
20170508,57017
20170509,57050
20170510,57019
20170511,57530
20170512,57217
20170515,56792
20170516,57057
20170517,56247
20170518,55451
20170519,54743
20170522,54980
20170523,54952
20170524,54837
20170525,54744
20170526,55012
20170529,54698
20170530,54211
20170531,53917
20170601,54264
20170602,54969
20170605,54365
20170606,54353
20170607,53726
20170608,54109
20170609,54389
20170612,54414
20170613,54082
20170614,54100
20170615,53730
20170616,54369
20170619,54353
20170620,54596
20170621,54269
20170622,54248
20170623,54168
20170626,54142
20170627,54401
20170628,54395
20170629,54373
20170630,54060
20170703,54088
20170704,54288
20170705,54281
20170706,54294
20170707,54270
20170710,54903
20170711,55000
20170712,54663
20170713,54521
20170714,54782
20170718,53971
20170719,53561
20170720,53814
20170721,53479
20170724,52849
20170725,53093
20170726,53269
20170727,52893
20170728,53041
20170731,52485
20170801,52518
20170802,52885
20170803,53505
20170804,52958
20170807,53293
20170808,53248
20170809,52970
20170810,52920
20170814,52274
20170815,52315
20170816,52582
20170817,52260
20170818,52014
20170821,52033
20170822,51755
20170823,52338
20170824,52020
20170825,52140
20170828,51772
20170829,51777
20170830,51962
20170831,52246
20170901,52288
20170904,52008
20170905,51722
20170906,51417
20170907,51567
20170908,51256
20170911,51187
20170912,51732
20170913,51728
20170914,52007
20170915,51396
20170919,51971
20170920,51946
20170921,52241
20170922,51786
20170925,51745
20170926,50790
20170927,50959
20170928,50855
20170929,50891
20171002,51221
20171003,51252
20171004,51004
20171005,51508
20171006,51542
20171010,51251
20171011,51003
20171012,51272
20171013,51303
20171016,51016
20171017,51355
20171018,51023
20171019,51235
20171020,51079
20171023,51390
20171024,51395
20171025,51329
20171026,51302
20171027,51843
20171030,51228
20171031,51235
20171101,51545
20171102,51798
20171106,51776
20171107,51522
20171108,51199
20171109,51423
20171110,51197
20171113,51213
20171114,50893
20171115,50537
20171116,50239
20171117,50178
20171120,50170
20171121,50258
20171122,50212
20171124,50202
20171127,50213
20171128,49837
20171129,50457
20171130,50739
20171201,50739
20171204,50767
20171205,50768
20171206,50799
20171207,50843
20171208,51091
20171211,51384
20171212,51363
20171213,51078
20171214,50776
20171215,50532
20171218,50867
20171219,50770
20171220,51049
20171221,50991
20171222,51248
20171225,50929
20171226,50963
20171227,50957
20171228,51237
20171229,50877
20180104,51227
20180105,51203
20180109,51532
20180110,50965
20180111,50628
20180112,50322
20180115,50074
20180116,50109
20180117,49500
20180118,50156
20180119,49833
20180122,49876
20180123,49871
20180124,49623
20180125,49567
20180126,49562
20180129,48981
20180130,49207
20180131,48976
20180201,49332
20180202,48964
20180205,49231
20180206,48666
20180207,48929
20180208,48995
20180209,48823
20180213,48529
20180214,48276
20180215,47743
20180216,47731
20180219,47447
20180220,47446
20180221,47416
20180222,47374
20180223,47098
20180226,47130
20180227,47144
20180228,47479
20180301,46950
20180302,46580
20180305,46307
20180306,46874
20180307,46579
20180308,46912
20180309,46939
20180312,46949
20180313,46983
20180314,47281
20180315,46695
20180316,46769
20180319,46528
20180320,46525
20180322,46259
20180323,46011
20180326,46323
20180327,46538
20180328,46649
20180329,47227
20180330,46974
20180402,46714
20180403,46719
20180404,47128
20180405,47493
20180406,47868
20180409,47623
20180410,47589
20180411,47516
20180412,47153
20180413,47459
20180416,47170
20180417,46880
20180418,46549
20180419,46737
20180420,46407
20180423,46311
20180424,46575
20180425,46553
20180426,46614
20180427,46513
20180501,46840
20180502,46842
20180507,46275
20180508,46030
20180509,46337
20180510,46547
20180511,46209
20180514,45951
20180515,45871
20180516,45573
20180517,45777
20180518,46028
20180521,46136
20180522,45844
20180523,45856
20180524,45258
20180525,45196
20180528,45519
20180529,45541
20180530,44971
20180531,45228
20180601,45468
20180604,45921
20180605,45915
20180606,45921
20180607,46158
20180608,45556
20180611,45313
20180612,45858
20180613,45890
20180614,45644
20180615,45622
20180618,45378
20180619,45127
20180620,44861
20180621,45427
20180622,45142
20180625,45130
20180626,44866
20180627,44878
20180628,44834
20180629,44784
20180702,45080
20180703,45116
20180704,44875
20180705,44881
20180706,44863
20180709,44889
20180710,45164
20180711,44895
20180712,45449
20180713,46061
20180717,45489
20180718,45803
20180719,45805
20180720,45234
20180723,44992
20180724,44992
20180725,44991
20180726,44706
20180727,45032
20180730,44999
20180731,45012
20180801,45297
20180802,45596
20180803,45304
20180806,45021
20180807,44985
20180808,45243
20180809,44980
20180810,45004
20180813,44736
20180814,44125
20180815,44125
20180816,43647
20180817,43619
20180820,43640
20180821,43661
20180822,43655
20180823,43926
20180824,44175
20180827,43847
20180828,43836
20180829,43792
20180830,43809
20180831,43218
20180903,42949
20180904,42852
20180905,42798
20180906,42506
20180907,42216
20180910,42498
20180911,42138
20180912,42105
20180913,42391
20180914,42654
20180918,41951
20180919,42194
20180920,42512
20180921,42769
20180925,42495
20180926,42175
20180927,42468
20180928,42731
20181001,43060
20181002,42476
20181003,42467
20181004,42468
20181005,42178
20181009,41421
20181010,41466
20181011,41149
20181012,41453
20181015,41168
20181016,41214
20181017,41403
20181018,41358
20181019,41371
20181022,41394
20181023,41382
20181024,41384
20181025,41397
20181026,41688
20181029,41140
20181030,41446
20181031,41712
20181101,41436
20181102,41646
20181105,42275
20181106,41999
20181107,42031
20181108,42570
20181109,42842
20181112,42608
20181113,42312
20181114,42616
20181115,42336
20181116,42561
20181119,42193
20181120,42466
20181121,42464
20181122,42722
20181126,43050
20181127,43058
20181128,43270
20181129,43276
20181130,43812
20181203,43826
20181204,43266
20181205,43023
20181206,43039
20181207,42787
20181210,42754
20181211,41875
20181212,42163
20181213,42504
20181214,42792
20181217,42188
20181218,42077
20181219,42634
20181220,42383
20181221,42293
20181225,41863
20181226,42138
20181227,42417
20181228,42135
20190104,41200
20190107,41728
20190108,41714
20190109,41506
20190110,41238
20190111,41245
20190115,40747
20190116,40747
20190117,41021
20190118,41007
20190121,41017
20190122,40934
20190123,40950
20190124,40939
20190125,41211
20190128,40944
20190129,40847
20190130,40577
20190131,40563
20190201,40867
20190204,40507
20190205,40455
20190206,40731
20190207,40761
20190208,40875
20190212,41253
20190213,41780
20190214,41867
20190215,41328
20190218,41066
20190219,41027
20190220,41034
20190221,41315
20190222,41511
20190225,41492
20190226,41702
20190227,41445
20190228,41398
20190301,41967
20190304,41978
20190305,41963
20190306,42226
20190307,42485
20190308,42235
20190311,42520
20190312,42440
20190313,42439
20190314,42363
20190315,42652
20190318,42678
20190319,42778
20190320,42738
20190322,42426
20190325,41894
20190326,42116
20190327,42110
20190328,42053
20190329,42082
20190401,42389
20190402,42399
20190403,42731
20190404,42958
20190405,42647
20190408,42182
20190409,41857
20190410,42129
20190411,42116
20190412,42348
20190415,42020
20190416,42059
20190417,42103
20190418,42057
20190419,42035
20190422,41972
20190423,41700
20190424,41705
20190425,41664
20190426,41436
20190507,41514
20190508,41048
20190509,41057
20190510,40809
20190513,40850
20190514,40377
20190515,40375
20190516,40437
20190517,40670
20190520,41192
20190521,40995
20190522,41257
20190523,41284
20190524,41064
20190527,41067
20190528,41200
20190529,40946
20190530,40960
20190531,40983
20190603,40847
20190604,41002
20190605,41002
20190606,41000
20190607,41329
20190610,41383
20190611,41126
20190612,41384
20190613,41406
20190614,41129
20190617,40920
20190618,40838
20190619,40821
20190620,40560
20190621,40597
20190624,40342
20190625,40621
20190626,40608
20190627,40886
20190628,40903
20190701,41183
20190702,41424
20190703,40916
20190704,41180
20190705,41430
20190708,41742
20190709,41818
20190710,41852
20190711,41590
20190712,41857
20190716,41375
20190717,41592
20190718,41293
20190719,41305
20190722,41315
20190723,41301
20190724,41311
20190725,41319
20190726,41286
20190729,41530
20190730,41590
20190731,41601
20190801,41868
20190802,40846
20190805,40389
20190806,39390
20190807,39435
20190808,39511
20190809,40060
20190813,39240
20190814,39788
20190815,39197
20190816,38973
20190819,39560
20190820,39284
20190821,39293
20190822,39308
20190823,39035
20190826,38729
20190827,38768
20190828,39019
20190829,38987
20190830,39217
20190902,38983
20190903,38969
20190904,38749
20190905,39049
20190906,39289
20190909,39349
20190910,39607
20190911,39634
20190912,39864
20190913,40365
20190917,39557
20190918,39546
20190919,40085
20190920,39796
20190924,39719
20190925,39452
20190926,39693
20190927,39657
20190930,39941
20191001,39952
20191002,39485
20191003,39480
20191004,39501
20191007,39476
20191008,39495
20191009,39217
20191010,39496
20191011,39612
20191015,39308
20191016,39278
20191017,39539
20191018,39473
20191021,39413
20191023,39311
20191024,39591
20191025,39284
20191028,39517
20191029,39494
20191030,39487
20191031,39444
20191101,38913
20191105,39554
20191106,39538
20191107,39558
20191108,39496
20191111,39227
20191112,39161
20191113,38914
20191114,38683
20191115,38266
20191118,38528
20191119,38343
20191120,38299
20191121,38309
20191122,38506
20191125,38493
20191126,38452
20191127,38670
20191128,38893
20191129,38623
20191202,38639
20191203,38356
20191204,38033
20191205,38263
20191206,38347
20191209,38034
20191210,38295
20191211,38465
20191212,38387
20191213,38611
20191216,38329
20191217,38365
20191218,38100
20191219,38307
20191220,38014
20191223,37966
20191224,37930
20191225,37665
20191226,37898
20191227,37896
20191230,37715
20200106,37328
20200107,37292
20200108,37066
20200109,37797
20200110,38089
20200114,38558
20200115,38024
20200116,38270
20200117,38133
20200120,37840
20200121,37795
20200122,37546
20200123,37710
20200124,37395
20200127,37151
20200128,36848
20200129,37101
20200130,37077
20200131,37083
20200203,36844
20200204,36854
20200205,37316
20200206,37299
20200207,37379
20200210,37177
20200212,37412
20200213,37413
20200214,37403
20200217,37131
20200218,37085
20200219,37083
20200220,37455
20200221,37680
20200225,36771
20200226,36545
20200227,36636
20200228,36285
20200302,35096
20200303,35176
20200304,34623
20200305,34512
20200306,34221
20200309,32593
20200310,32857
20200311,33537
20200312,33505
20200313,33130
20200316,33715
20200317,33312
20200318,33485
20200319,33630
20200323,33805
20200324,33304
20200325,33239
20200326,33427
20200327,33467
20200330,32909
20200331,33302
20200401,32862
20200402,32410
20200403,32643
20200406,32842
20200407,33008
20200408,32981
20200409,32933
20200410,32482
20200413,32695
20200414,32257
20200415,31960
20200416,32098
20200417,31806
20200420,31908
20200421,31946
20200422,31702
20200423,31971
20200424,32153
20200427,31891
20200428,31820
20200430,32050
20200501,32050
20200507,31633
20200508,31858
20200511,31879
20200512,31800
20200513,31987
20200514,31981
20200515,31736
20200518,31490
20200519,31860
20200520,32052
20200521,32012
20200522,32005
20200525,31805
20200526,31767
20200527,31781
20200528,31696
20200529,31697
20200601,31924
20200602,31813
20200603,32453
20200604,32217
20200605,32379
20200608,32340
20200609,31906
20200610,31895
20200611,31423
20200612,31189
20200615,31159
20200616,31154
20200617,31162
20200618,30898
20200619,30902
20200622,30882
20200623,31093
20200624,31034
20200625,31024
20200626,31234
20200629,31242
20200630,31436
20200701,31446
20200702,31239
20200703,31754
20200706,31704
20200707,31702
20200708,31670
20200709,31420
20200710,31414
20200713,31213
20200714,31401
20200715,31123
20200716,30927
20200717,31205
20200720,31193
20200721,31161
20200722,31124
20200727,30677
20200728,30615
20200729,30370
20200730,30362
20200731,30335
20200803,30778
20200804,30545
20200805,30540
20200806,30524
20200807,30493
20200811,30674
20200812,30871
20200813,30827
20200814,30832
20200817,30380
20200818,30101
20200819,30086
20200820,30215
20200821,29978
20200824,29945
20200825,30310
20200826,30217
20200827,30141
20200828,30312
20200831,30263
20200901,30292
20200902,30551
20200903,30638
20200904,30568
20200907,30540
20200908,30424
20200909,30169
20200910,30350
20200911,30293
20200914,30131
20200915,29901
20200916,29709
20200917,29688
20200918,29630
20200923,29574
20200924,29530
20200925,29405
20200928,29334
20200929,29279
20200930,29443
20201001,29422
20201002,29441
20201005,29433
20201006,29462
20201007,29347
20201008,29522
20201009,29501
20201012,29515
20201013,29256
20201014,29257
20201015,29040
20201016,29015
20201019,28825
20201020,28983
20201021,28751
20201022,28500
20201023,28455
20201026,28453
20201027,28412
20201028,28333
20201029,28086
20201030,28040
20201102,28027
20201104,27806
20201105,27749
20201106,27706
20201109,27685
20201110,28066
20201111,27826
20201112,27959
20201113,27784
20201116,27393
20201117,27366
20201118,27361
20201119,27329
20201120,27294
20201124,27472
20201125,27393
20201126,27542
20201127,27348
20201130,27147
20201201,27298
20201202,27497
20201203,27436
20201204,27201
20201207,27173
20201208,27138
20201209,27102
20201210,27080
20201211,27042
20201214,27006
20201215,26822
20201216,26810
20201217,26585
20201218,26535
20201221,26514
20201222,26239
20201223,26413
20201224,26375
20201225,26543
20201228,26544
20201229,26539
20201230,26500
20210104,26515
20210105,26512
20210106,26312
20210107,26454
20210108,26419
20210112,26511
20210113,26262
20210114,26418
20210115,26267
20210118,26238
20210119,26209
20210120,26213
20210121,26157
20210122,26130
20210125,26091
20210126,26033
20210127,25984
20210128,26164
20210129,26132
20210201,26310
20210202,25987
20210203,26122
20210204,26144
20210205,26311
20210208,26279
20210209,26074
20210210,26042
20210212,26041
20210215,26050
20210216,26040
20210217,26203
20210218,25946
20210219,26052
20210222,25865
20210224,26033
20210225,26135
20210226,25927
20210301,25561
20210302,25878
20210303,25875
20210304,26046
20210305,26184
20210308,26173
20210309,26322
20210310,26238
20210311,26199
20210312,26150
20210315,26192
20210316,26288
20210317,26098
20210318,26232
20210319,26021
20210322,25997
20210323,25981
20210324,25967
20210325,25920
20210326,26018
20210329,26023
20210330,26012